Volver al catálogo

DELTA 2 R/B

ActivoUNKNOWN
NORAD 21048·ROCKET BODY·🇺🇸 United States

Lanzado Jan 8, 1991 desde Cape Canaveral Space Force Station

Loading…

Próximos Pases (próximas 24 horas)

TLE

ActualizadoSource: Space-Track

Época: Sep 14, 2026, 22:58 UTC

1 21048U 91001B   26257.95710670  .00000250  00000-0  17999-3 0  9998
2 21048  18.4536 221.7823 1188036   4.4643 356.5350 11.85471183547166

Sigue DELTA 2 R/B en tiempo real con AllMySat

Download on the App Store